Location: Charlottesville
(38.0290°N, 78.4770°W)
Time: 15:41:15
(UTC-05:00)

Vanguard 3 - Visible Passes

Search period start: 16 December 2017 00:00
Search period end: 26 December 2017 00:00
Orbit: 509 x 3263 km, 33.3° (Epoch: 15 December)

Date Brightness Start Highest point End Pass type
(mag) Time Alt. Az. Time Alt. Az. Time Alt. Az.
21 Dec 11.5 06:13:05 10° SSE 06:16:39 11° SSE 06:19:48 10° SE visible
23 Dec 11.4 05:52:44 10° S 06:00:45 16° SSE 06:07:02 10° ESE visible
24 Dec 10.8 06:48:01 10° SSW 06:59:47 29° SSE 07:07:32 10° E visible
25 Dec 11.2 05:33:44 10° SSW 05:44:43 22° SSE 05:52:51 10° ESE visible
